Home   Weather   Lienz   Past weeks

Flag for Austria Past Weather in Lienz, Tyrol, Austria — Yesterday and Last 2 Weeks

Now
33 °F

Chilly.


Feels Like: 33 °F
Forecast: 26 / 41 °F
Wind: 2 mph from West

Location: Lienz

Current Time: Dec 3, 2016 at 2:53:37 pm

Latest Report: Dec 3, 2016 at 2:00 pm


Visibility: N/A

Pressure: 30.26 "Hg (27.81 "Hg at 677m altitude)

Humidity: 65%

Dew Point: 23 °F

Location of LienzLocation

Past Weather in Lienz — Graph

°F

Lienz Temperature Yesterday

Maximum temperature yesterday: 59 °F (at 1:00 pm)
Minimum temperature yesterday: 29 °F (at 11:00 pm)
Average temperature yesterday: 48 °F

High & Low Weather Summary for the Past Weeks

 TemperatureHumidityPressure
High59 °F (Dec 2, 1:00 pm)100% (Nov 27, 7:00 am)30.66 "Hg (Nov 27, 7:00 am)
Low17 °F (Nov 30, 6:00 am)12% (Dec 2, 12:00 pm)29.80 "Hg (Dec 2, 8:00 am)
Average38 °F81%30.16 "Hg
* Reported Nov 18 1:00 pm — Dec 3 1:00 pm, Lienz, Weather by CustomWeather, © 2016

Note: Actual official high and low records may vary slightly from our data, if they occured in-between our weather recording intervals... More about our weather records

Advertising

Lienz Weather History for the Previous 24 Hours

Scroll right to see more
 ConditionsComfort  
Time TempWeatherWind HumidityBarometerVisibility
1:00 pm
Sat, Dec 3
37 °FPassing clouds.1 mph59%30.25 "Hg12 mi
12:00 pm36 °FChilly.1 mph60%30.27 "HgN/A
11:00 am35 °FChilly.1 mph66%30.29 "HgN/A
10:00 am30 °FChilly.No wind75%30.32 "HgN/A
9:00 am25 °FCold.No wind84%30.32 "HgN/A
8:00 am24 °FCold.No wind86%30.31 "HgN/A
7:00 am24 °FPassing clouds.1 mph86%30.30 "Hg19 mi
6:00 am24 °FCold.No wind84%30.29 "HgN/A
5:00 am24 °FCold.No wind86%30.27 "HgN/A
4:00 am25 °FCold.No wind84%30.27 "HgN/A
3:00 am25 °FChilly.No wind81%30.25 "HgN/A
2:00 am26 °FChilly.No wind80%30.23 "HgN/A
1:00 am27 °FChilly.1 mph79%30.21 "HgN/A
12:00 am29 °FChilly.1 mph74%30.18 "HgN/A
11:00 pm
Fri, Dec 2
29 °FChilly.No wind74%30.17 "HgN/A
10:00 pm32 °FChilly.1 mph67%30.15 "HgN/A
9:00 pm36 °FChilly.No wind56%30.11 "HgN/A
8:00 pm37 °FChilly.2 mph55%30.09 "HgN/A
7:00 pm44 °FQuite cool.1 mph39%30.03 "HgN/A
6:00 pm48 °FCool.2 mph32%29.99 "HgN/A
5:00 pm48 °FCool.1 mph31%29.98 "HgN/A
4:00 pm51 °FCool.6 mph28%29.93 "HgN/A
3:00 pm55 °FCool.6 mph21%29.90 "HgN/A
2:00 pm55 °FCool.1 mph16%29.88 "HgN/A
Weather by CustomWeather, © 2016

See weather overviewHow to use our weather pages